Time,TemperatureF,DewpointF,PressureIn,WindDirection,WindDirectionDegrees,WindSpeedMPH,WindSpeedGustMPH,Humidity,HourlyPrecipIn,Conditions,Clouds,dailyrainin,SolarRadiationWatts/m^2,SoftwareType,DateUTC
2013-02-27 00:01:00,43.0,-3.0,-100.00,SSW,204,8.0,11.0,14,0.00,,,0.00,0.000000,,2013-02-27 08:01:00,
2013-02-27 00:11:00,43.0,-3.0,-100.00,SSW,204,8.0,11.0,14,0.00,,,0.00,0.000000,,2013-02-27 08:11:00,
2013-02-27 00:21:00,43.0,-3.0,-100.00,SSW,204,8.0,11.0,14,0.00,,,0.00,0.000000,,2013-02-27 08:21:00,
2013-02-27 00:52:00,44.0,-2.0,-100.00,SW,214,9.0,12.0,14,0.00,,,0.00,0.000000,,2013-02-27 08:52:00,
2013-02-27 01:01:00,44.0,-2.0,-100.00,SW,214,9.0,12.0,14,0.00,,,0.00,0.000000,,2013-02-27 09:01:00,
2013-02-27 01:11:00,44.0,-2.0,-100.00,SW,214,9.0,12.0,14,0.00,,,0.00,0.000000,,2013-02-27 09:11:00,
2013-02-27 01:21:00,44.0,-2.0,-100.00,SW,214,9.0,12.0,14,0.00,,,0.00,0.000000,,2013-02-27 09:21:00,
2013-02-27 01:52:00,41.0,-4.0,-100.00,South,189,0.0,11.0,14,0.00,,,-99.99,0.000000,,2013-02-27 09:52:00,
2013-02-27 02:01:00,41.0,-4.0,-100.00,South,189,0.0,11.0,14,0.00,,,-99.99,0.000000,,2013-02-27 10:01:00,
2013-02-27 02:12:00,41.0,-4.0,-100.00,South,189,0.0,11.0,14,0.00,,,-99.99,0.000000,,2013-02-27 10:12:00,
2013-02-27 02:21:00,41.0,-4.0,-100.00,South,189,0.0,11.0,14,0.00,,,-99.99,0.000000,,2013-02-27 10:21:00,
2013-02-27 02:52:00,41.0,0.0,-100.00,NW,313,1.0,6.0,17,0.00,,,0.00,0.000000,,2013-02-27 10:52:00,
2013-02-27 03:01:00,41.0,0.0,-100.00,NW,313,1.0,6.0,17,0.00,,,0.00,0.000000,,2013-02-27 11:01:00,
2013-02-27 03:11:00,41.0,0.0,-100.00,NW,313,1.0,6.0,17,0.00,,,0.00,0.000000,,2013-02-27 11:11:00,
2013-02-27 03:21:00,41.0,0.0,-100.00,NW,313,1.0,6.0,17,0.00,,,0.00,0.000000,,2013-02-27 11:21:00,
2013-02-27 03:52:00,41.0,-2.0,-100.00,NW,306,3.0,6.0,16,0.00,,,-99.99,0.000000,,2013-02-27 11:52:00,
2013-02-27 04:02:00,41.0,-2.0,-100.00,NW,306,3.0,6.0,16,0.00,,,-99.99,0.000000,,2013-02-27 12:02:00,
2013-02-27 04:12:00,41.0,-2.0,-100.00,NW,306,3.0,6.0,16,0.00,,,-99.99,0.000000,,2013-02-27 12:12:00,
2013-02-27 04:21:00,41.0,-2.0,-100.00,NW,306,3.0,6.0,16,0.00,,,-99.99,0.000000,,2013-02-27 12:21:00,
2013-02-27 04:52:00,41.0,0.0,-100.00,NW,315,0.0,5.0,17,0.00,,,0.00,0.000000,,2013-02-27 12:52:00,
2013-02-27 05:02:00,41.0,0.0,-100.00,NW,315,0.0,5.0,17,0.00,,,0.00,0.000000,,2013-02-27 13:02:00,
2013-02-27 05:11:00,41.0,0.0,-100.00,NW,315,0.0,5.0,17,0.00,,,0.00,0.000000,,2013-02-27 13:11:00,
2013-02-27 05:21:00,41.0,0.0,-100.00,NW,315,0.0,5.0,17,0.00,,,0.00,0.000000,,2013-02-27 13:21:00,
2013-02-27 05:52:00,43.0,0.0,-100.00,West,277,0.0,5.0,16,0.00,,,0.00,0.000000,,2013-02-27 13:52:00,
2013-02-27 06:02:00,43.0,0.0,-100.00,West,277,0.0,5.0,16,0.00,,,0.00,0.000000,,2013-02-27 14:02:00,
2013-02-27 06:11:00,43.0,0.0,-100.00,West,277,0.0,5.0,16,0.00,,,0.00,0.000000,,2013-02-27 14:11:00,
2013-02-27 06:21:00,43.0,0.0,-100.00,West,277,0.0,5.0,16,0.00,,,0.00,0.000000,,2013-02-27 14:21:00,
2013-02-27 06:52:00,40.0,1.0,-100.00,SSW,195,4.0,5.0,19,0.00,,,0.00,0.000000,,2013-02-27 14:52:00,
2013-02-27 07:02:00,40.0,1.0,-100.00,SSW,195,4.0,5.0,19,0.00,,,0.00,0.000000,,2013-02-27 15:02:00,
2013-02-27 07:12:00,40.0,1.0,-100.00,SSW,195,4.0,5.0,19,0.00,,,0.00,0.000000,,2013-02-27 15:12:00,
2013-02-27 07:22:00,40.0,1.0,-100.00,SSW,195,4.0,5.0,19,0.00,,,0.00,0.000000,,2013-02-27 15:22:00,
2013-02-27 07:52:00,44.0,1.0,-100.00,SSE,165,0.0,5.0,16,0.00,,,0.00,104.000000,,2013-02-27 15:52:00,
2013-02-27 08:01:00,44.0,1.0,-100.00,SSE,165,0.0,5.0,16,0.00,,,0.00,104.000000,,2013-02-27 16:01:00,
2013-02-27 08:11:00,44.0,1.0,-100.00,SSE,165,0.0,5.0,16,0.00,,,0.00,104.000000,,2013-02-27 16:11:00,
2013-02-27 08:21:00,44.0,1.0,-100.00,SSE,165,0.0,5.0,16,0.00,,,0.00,104.000000,,2013-02-27 16:21:00,
2013-02-27 08:52:00,51.0,4.0,-100.00,ENE,69,1.0,5.0,14,0.00,,,0.00,349.000000,,2013-02-27 16:52:00,
2013-02-27 09:01:00,51.0,4.0,-100.00,ENE,69,1.0,5.0,14,0.00,,,0.00,349.000000,,2013-02-27 17:01:00,
2013-02-27 09:11:00,51.0,4.0,-100.00,ENE,69,1.0,5.0,14,0.00,,,0.00,349.000000,,2013-02-27 17:11:00,
2013-02-27 09:52:00,53.0,4.0,-100.00,East,99,2.0,7.0,13,0.00,,,0.00,576.000000,,2013-02-27 17:52:00,
2013-02-27 10:01:00,53.0,4.0,-100.00,East,99,2.0,7.0,13,0.00,,,0.00,576.000000,,2013-02-27 18:01:00,
2013-02-27 10:11:00,53.0,4.0,-100.00,East,99,2.0,7.0,13,0.00,,,0.00,576.000000,,2013-02-27 18:11:00,
2013-02-27 10:21:00,53.0,4.0,-100.00,East,99,2.0,7.0,13,0.00,,,0.00,576.000000,,2013-02-27 18:21:00,
2013-02-27 10:52:00,54.0,3.0,-100.00,SE,128,1.0,9.0,12,0.00,,,0.00,854.000000,,2013-02-27 18:52:00,
2013-02-27 11:01:00,54.0,3.0,-100.00,SE,128,1.0,9.0,12,0.00,,,0.00,854.000000,,2013-02-27 19:01:00,
2013-02-27 11:11:00,54.0,3.0,-100.00,SE,128,1.0,9.0,12,0.00,,,0.00,854.000000,,2013-02-27 19:11:00,
2013-02-27 11:21:00,54.0,3.0,-100.00,SE,128,1.0,9.0,12,0.00,,,0.00,854.000000,,2013-02-27 19:21:00,
2013-02-27 11:52:00,55.0,1.0,-100.00,East,82,4.0,9.0,11,0.00,,,0.00,1001.000000,,2013-02-27 19:52:00,
2013-02-27 12:01:00,55.0,1.0,-100.00,East,82,4.0,9.0,11,0.00,,,0.00,1001.000000,,2013-02-27 20:01:00,
2013-02-27 12:11:00,55.0,1.0,-100.00,East,82,4.0,9.0,11,0.00,,,0.00,1001.000000,,2013-02-27 20:11:00,
2013-02-27 12:21:00,55.0,1.0,-100.00,East,82,4.0,9.0,11,0.00,,,0.00,1001.000000,,2013-02-27 20:21:00,
2013-02-27 12:52:00,57.0,1.0,-100.00,ENE,62,7.0,12.0,10,0.00,,,-99.99,1057.000000,,2013-02-27 20:52:00,
2013-02-27 13:01:00,57.0,1.0,-100.00,ENE,62,7.0,12.0,10,0.00,,,-99.99,1057.000000,,2013-02-27 21:01:00,
2013-02-27 13:11:00,57.0,1.0,-100.00,ENE,62,7.0,12.0,10,0.00,,,-99.99,1057.000000,,2013-02-27 21:11:00,
2013-02-27 13:21:00,57.0,1.0,-100.00,ENE,62,7.0,12.0,10,0.00,,,-99.99,1057.000000,,2013-02-27 21:21:00,
2013-02-27 13:52:00,55.0,1.0,-100.00,ESE,108,3.0,11.0,11,0.00,,,0.00,1022.000000,,2013-02-27 21:52:00,
2013-02-27 14:01:00,55.0,1.0,-100.00,ESE,108,3.0,11.0,11,0.00,,,0.00,1022.000000,,2013-02-27 22:01:00,
2013-02-27 14:11:00,55.0,1.0,-100.00,ESE,108,3.0,11.0,11,0.00,,,0.00,1022.000000,,2013-02-27 22:11:00,
2013-02-27 14:21:00,55.0,1.0,-100.00,ESE,108,3.0,11.0,11,0.00,,,0.00,1022.000000,,2013-02-27 22:21:00,
2013-02-27 14:52:00,56.0,0.0,-100.00,ESE,123,5.0,13.0,10,0.00,,,0.00,902.000000,,2013-02-27 22:52:00,
2013-02-27 15:01:00,56.0,0.0,-100.00,ESE,123,5.0,13.0,10,0.00,,,0.00,902.000000,,2013-02-27 23:01:00,
2013-02-27 15:11:00,56.0,0.0,-100.00,ESE,123,5.0,13.0,10,0.00,,,0.00,902.000000,,2013-02-27 23:11:00,
2013-02-27 15:21:00,56.0,0.0,-100.00,ESE,123,5.0,13.0,10,0.00,,,0.00,902.000000,,2013-02-27 23:21:00,
2013-02-27 15:53:00,58.0,2.0,-100.00,SSE,164,4.0,11.0,10,0.00,,,0.00,629.000000,,2013-02-27 23:53:00,
2013-02-27 16:01:00,58.0,2.0,-100.00,SSE,164,4.0,11.0,10,0.00,,,0.00,629.000000,,2013-02-28 00:01:00,
2013-02-27 16:11:00,58.0,2.0,-100.00,SSE,164,4.0,11.0,10,0.00,,,0.00,629.000000,,2013-02-28 00:11:00,
2013-02-27 16:21:00,58.0,2.0,-100.00,SSE,164,4.0,11.0,10,0.00,,,0.00,629.000000,,2013-02-28 00:21:00,
2013-02-27 16:52:00,57.0,1.0,-100.00,SSE,162,4.0,10.0,10,0.00,,,0.00,467.000000,,2013-02-28 00:52:00,
2013-02-27 17:01:00,57.0,1.0,-100.00,SSE,162,4.0,10.0,10,0.00,,,0.00,467.000000,,2013-02-28 01:01:00,
2013-02-27 17:11:00,57.0,1.0,-100.00,SSE,162,4.0,10.0,10,0.00,,,0.00,467.000000,,2013-02-28 01:11:00,
2013-02-27 17:21:00,57.0,1.0,-100.00,SSE,162,4.0,10.0,10,0.00,,,0.00,467.000000,,2013-02-28 01:21:00,
2013-02-27 17:52:00,50.0,-1.0,-100.00,SSE,168,2.0,8.0,12,0.00,,,0.00,106.000000,,2013-02-28 01:52:00,
2013-02-27 18:01:00,50.0,-1.0,-100.00,SSE,168,2.0,8.0,12,0.00,,,0.00,106.000000,,2013-02-28 02:01:00,
2013-02-27 18:11:00,50.0,-1.0,-100.00,SSE,168,2.0,8.0,12,0.00,,,0.00,106.000000,,2013-02-28 02:11:00,
2013-02-27 18:21:00,50.0,-1.0,-100.00,SSE,168,2.0,8.0,12,0.00,,,0.00,106.000000,,2013-02-28 02:21:00,
2013-02-27 19:01:00,48.0,0.0,-100.00,SE,142,0.0,4.0,13,0.00,,,0.00,4.000000,,2013-02-28 03:01:00,
2013-02-27 19:11:00,48.0,0.0,-100.00,SE,142,0.0,4.0,13,0.00,,,0.00,4.000000,,2013-02-28 03:11:00,
2013-02-27 19:21:00,48.0,0.0,-100.00,SE,142,0.0,4.0,13,0.00,,,0.00,4.000000,,2013-02-28 03:21:00,
2013-02-27 19:52:00,48.0,0.0,-100.00,SW,214,0.0,3.0,13,0.00,,,0.00,0.000000,,2013-02-28 03:52:00,
2013-02-27 20:01:00,48.0,0.0,-100.00,SW,214,0.0,3.0,13,0.00,,,0.00,0.000000,,2013-02-28 04:01:00,
2013-02-27 20:11:00,48.0,0.0,-100.00,SW,214,0.0,3.0,13,0.00,,,0.00,0.000000,,2013-02-28 04:11:00,
2013-02-27 20:21:00,48.0,0.0,-100.00,SW,214,0.0,3.0,13,0.00,,,0.00,0.000000,,2013-02-28 04:21:00,
2013-02-27 20:52:00,49.0,0.0,-100.00,WSW,241,0.0,0.0,13,0.00,,,-99.99,0.000000,,2013-02-28 04:52:00,
2013-02-27 21:01:00,49.0,0.0,-100.00,WSW,241,0.0,0.0,13,0.00,,,-99.99,0.000000,,2013-02-28 05:01:00,
2013-02-27 21:11:00,49.0,0.0,-100.00,WSW,241,0.0,0.0,13,0.00,,,-99.99,0.000000,,2013-02-28 05:11:00,
2013-02-27 21:22:00,49.0,0.0,-100.00,WSW,241,0.0,0.0,13,0.00,,,-99.99,0.000000,,2013-02-28 05:22:00,
2013-02-27 21:52:00,47.0,0.0,-100.00,South,174,0.0,0.0,14,0.00,,,0.00,0.000000,,2013-02-28 05:52:00,
2013-02-27 22:01:00,47.0,0.0,-100.00,South,174,0.0,0.0,14,0.00,,,0.00,0.000000,,2013-02-28 06:01:00,
2013-02-27 22:11:00,47.0,0.0,-100.00,South,174,0.0,0.0,14,0.00,,,0.00,0.000000,,2013-02-28 06:11:00,
2013-02-27 22:22:00,47.0,0.0,-100.00,South,174,0.0,0.0,14,0.00,,,0.00,0.000000,,2013-02-28 06:22:00,
2013-02-27 22:52:00,47.0,0.0,-100.00,SSE,168,5.0,9.0,14,0.00,,,0.00,0.000000,,2013-02-28 06:52:00,
2013-02-27 23:01:00,47.0,0.0,-100.00,SSE,168,5.0,9.0,14,0.00,,,0.00,0.000000,,2013-02-28 07:01:00,
2013-02-27 23:11:00,47.0,0.0,-100.00,SSE,168,5.0,9.0,14,0.00,,,0.00,0.000000,,2013-02-28 07:11:00,
2013-02-27 23:21:00,47.0,0.0,-100.00,SSE,168,5.0,9.0,14,0.00,,,0.00,0.000000,,2013-02-28 07:21:00,
2013-02-27 23:52:00,47.0,0.0,-100.00,NW,326,4.0,8.0,14,0.00,,,0.00,0.000000,,2013-02-28 07:52:00,